| time (UTC) | temp F | wind direction | speed MPH | gust MPH | rain 1hr in | rain 24hr in | rain mn in | humidity % | barometer mb |
| 20260506191344 | 60 | 256 | 3.0 | 13.0 | 0.00 | 0.00 | 0.00 | 30 | 1017.9 |
| 20260506190333 | 59 | 95 | 3.0 | 10.0 | 0.00 | 0.00 | 0.00 | 29 | 1017.9 |
| 20260506185326 | 57 | 162 | 3.0 | 7.0 | 0.00 | 0.00 | 0.00 | 31 | 1018.1 |
| 20260506184400 | 57 | 43 | 3.0 | 7.0 | 0.00 | 0.00 | 0.00 | 33 | 1018.3 |
| 20260506183352 | 58 | 2 | 5.0 | 10.0 | 0.00 | 0.00 | 0.00 | 33 | 1018.3 |
| 20260506182331 | 57 | 323 | 4.0 | 12.0 | 0.00 | 0.00 | 0.00 | 33 | 1018.5 |
| 20260506181405 | 58 | 243 | 2.0 | 7.0 | 0.00 | 0.00 | 0.00 | 33 | 1018.6 |
| 20260506180346 | 57 | 221 | 3.0 | 10.0 | 0.00 | 0.00 | 0.00 | 33 | 1018.6 |
| 20260506175328 | 56 | 148 | 3.0 | 10.0 | 0.00 | 0.00 | 0.00 | 34 | 1018.8 |
| 20260506174355 | 55 | 315 | 2.0 | 11.0 | 0.00 | 0.00 | 0.00 | 35 | 1018.9 |
| 20260506173400 | 55 | 351 | 3.0 | 8.0 | 0.00 | 0.00 | 0.00 | 34 | 1019.0 |
| 20260506172330 | 56 | 15 | 2.0 | 10.0 | 0.00 | 0.00 | 0.00 | 35 | 1019.0 |
| 20260506171348 | 55 | 17 | 3.0 | 6.0 | 0.00 | 0.00 | 0.00 | 35 | 1019.3 |
| 20260506170327 | 55 | 330 | 4.0 | 12.0 | 0.00 | 0.00 | 0.00 | 35 | 1019.5 |
| 20260506165356 | 55 | 145 | 1.0 | 6.0 | 0.00 | 0.00 | 0.00 | 36 | 1019.4 |
| 20260506164336 | 54 | 358 | 2.0 | 8.0 | 0.00 | 0.00 | 0.00 | 40 | 1019.5 |
| 20260506163347 | 53 | 163 | 1.0 | 6.0 | 0.00 | 0.00 | 0.00 | 37 | 1019.6 |
| 20260506162338 | 53 | 13 | 1.0 | 7.0 | 0.00 | 0.00 | 0.00 | 37 | 1019.6 |
| 20260506161326 | 54 | 30 | 4.0 | 8.0 | 0.00 | 0.00 | 0.00 | 37 | 1019.5 |
| 20260506160357 | 53 | 347 | 2.0 | 8.0 | 0.00 | 0.00 | 0.00 | 41 | 1019.5 |
| 20260506155348 | 53 | 2 | 2.0 | 5.0 | 0.00 | 0.00 | 0.00 | 39 | 1019.4 |
| 20260506154348 | 52 | 338 | 2.0 | 6.0 | 0.00 | 0.00 | 0.00 | 41 | 1019.3 |
| 20260506153329 | 52 | 39 | 1.0 | 5.0 | 0.00 | 0.00 | 0.00 | 42 | 1019.4 |
| 20260506152337 | 52 | 358 | 2.0 | 4.0 | 0.00 | 0.00 | 0.00 | 42 | 1019.4 |
| 20260506151338 | 51 | 347 | 2.0 | 6.0 | 0.00 | 0.00 | 0.00 | 42 | 1019.4 |
| 20260506150328 | 51 | 339 | 3.0 | 6.0 | 0.00 | 0.00 | 0.00 | 42 | 1019.4 |
| 20260506145325 | 50 | 329 | 2.0 | 6.0 | 0.00 | 0.00 | 0.00 | 43 | 1019.4 |
| 20260506144332 | 50 | 20 | 1.0 | 4.0 | 0.00 | 0.00 | 0.00 | 45 | 1019.5 |
| 20260506143357 | 49 | 149 | 1.0 | 4.0 | 0.00 | 0.00 | 0.00 | 45 | 1019.4 |
| 20260506142329 | 49 | 17 | 1.0 | 4.0 | 0.00 | 0.00 | 0.00 | 45 | 1019.4 |
| 20260506141335 | 48 | 351 | 1.0 | 3.0 | 0.00 | 0.00 | 0.00 | 50 | 1019.3 |
| 20260506140325 | 47 | 21 | 0.0 | 3.0 | 0.00 | 0.00 | 0.00 | 48 | 1019.3 |
| 20260506135335 | 47 | 19 | 2.0 | 5.0 | 0.00 | 0.00 | 0.00 | 47 | 1019.3 |
| 20260506134332 | 46 | 22 | 3.0 | 5.0 | 0.00 | 0.00 | 0.00 | 48 | 1019.2 |
| 20260506133322 | 46 | 327 | 0.0 | 3.0 | 0.00 | 0.00 | 0.00 | 52 | 1019.1 |
| 20260506132333 | 45 | 17 | 2.0 | 5.0 | 0.00 | 0.00 | 0.00 | 51 | 1019.0 |
| 20260506131339 | 44 | 3 | 1.0 | 2.0 | 0.00 | 0.00 | 0.00 | 53 | 1018.8 |
| 20260506130349 | 43 | 355 | 0.0 | 2.0 | 0.00 | 0.00 | 0.00 | 56 | 1018.6 |
| 20260506125326 | 42 | 347 | 1.0 | 2.0 | 0.00 | 0.00 | 0.00 | 59 | 1018.7 |
| 20260506124348 | 40 | 276 | 0.0 | 1.0 | 0.00 | 0.00 | 0.00 | 63 | 1018.6 |
| 20260506123335 | 39 | 257 | 0.0 | 1.0 | 0.00 | 0.00 | 0.00 | 65 | 1018.3 |
| 20260506122323 | 38 | 5 | 0.0 | 0.0 | 0.00 | 0.00 | 0.00 | 68 | 1018.2 |
| 20260506121325 | 36 | 5 | 0.0 | 0.0 | 0.00 | 0.00 | 0.00 | 70 | 1018.0 |
| 20260506120333 | 36 | 5 | 0.0 | 0.0 | 0.00 | 0.00 | 0.00 | 71 | 1017.9 |
| 20260506115346 | 36 | 5 | 0.0 | 0.0 | 0.00 | 0.00 | 0.00 | 69 | 1017.7 |
| 20260506114333 | 36 | 5 | 0.0 | 0.0 | 0.00 | 0.00 | 0.00 | 69 | 1017.5 |
| 20260506113323 | 36 | 5 | 0.0 | 0.0 | 0.00 | 0.00 | 0.00 | 68 | 1017.5 |
| 20260506112352 | 37 | 5 | 0.0 | 0.0 | 0.00 | 0.00 | 0.00 | 67 | 1017.4 |
| 20260506111332 | 37 | 5 | 0.0 | 0.0 | 0.00 | 0.00 | 0.00 | 66 | 1017.4 |
| 20260506110322 | 38 | 5 | 0.0 | 0.0 | 0.00 | 0.00 | 0.00 | 65 | 1017.3 |
| 20260506105334 | 38 | 5 | 0.0 | 0.0 | 0.00 | 0.00 | 0.00 | 64 | 1017.4 |
| 20260506104357 | 39 | 5 | 0.0 | 0.0 | 0.00 | 0.00 | 0.00 | 62 | 1017.4 |
| 20260506103346 | 39 | 5 | 0.0 | 0.0 | 0.00 | 0.00 | 0.00 | 62 | 1017.2 |
| 20260506102330 | 39 | 5 | 0.0 | 0.0 | 0.00 | 0.00 | 0.00 | 61 | 1017.2 |
| 20260506101336 | 40 | 5 | 0.0 | 0.0 | 0.00 | 0.00 | 0.00 | 60 | 1017.1 |
| 20260506100346 | 40 | 5 | 0.0 | 0.0 | 0.00 | 0.00 | 0.00 | 60 | 1017.0 |
| 20260506095339 | 41 | 5 | 0.0 | 0.0 | 0.00 | 0.00 | 0.00 | 59 | 1017.0 |
| 20260506094344 | 42 | 5 | 0.0 | 0.0 | 0.00 | 0.00 | 0.00 | 57 | 1016.9 |
| 20260506093322 | 42 | 5 | 0.0 | 0.0 | 0.00 | 0.00 | 0.00 | 56 | 1016.8 |
| 20260506092336 | 43 | 5 | 0.0 | 0.0 | 0.00 | 0.00 | 0.00 | 54 | 1016.7 |
| 20260506091345 | 44 | 5 | 0.0 | 0.0 | 0.00 | 0.00 | 0.00 | 54 | 1016.5 |
| 20260506090335 | 44 | 5 | 0.0 | 1.0 | 0.00 | 0.00 | 0.00 | 51 | 1016.4 |
| 20260506085326 | 44 | 338 | 0.0 | 0.0 | 0.00 | 0.00 | 0.00 | 52 | 1016.3 |
| 20260506084400 | 45 | 338 | 0.0 | 0.0 | 0.00 | 0.00 | 0.00 | 51 | 1016.2 |
| 20260506083328 | 45 | 338 | 0.0 | 0.0 | 0.00 | 0.00 | 0.00 | 51 | 1016.2 |
| 20260506082337 | 45 | 337 | 0.0 | 1.0 | 0.00 | 0.00 | 0.00 | 48 | 1016.2 |
| 20260506081341 | 46 | 3 | 0.0 | 1.0 | 0.00 | 0.00 | 0.00 | 49 | 1016.1 |
| 20260506080350 | 46 | 359 | 0.0 | 0.0 | 0.00 | 0.00 | 0.00 | 48 | 1016.1 |
| 20260506073347 | 46 | 13 | 1.0 | 2.0 | 0.00 | 0.01 | 0.00 | 45 | 1015.8 |
| 20260506072333 | 47 | 12 | 1.0 | 3.0 | 0.00 | 0.01 | 0.00 | 44 | 1015.8 |
| 20260506071410 | 47 | 5 | 1.0 | 2.0 | 0.00 | 0.01 | 0.00 | 44 | 1015.7 |
| 20260506070330 | 47 | 15 | 1.0 | 2.0 | 0.00 | 0.01 | 0.00 | 44 | 1015.8 |
| 20260506062334 | 48 | 358 | 0.0 | 4.0 | 0.00 | 0.02 | 0.00 | 43 | 1015.8 |
| 20260506061336 | 48 | 356 | 0.0 | 4.0 | 0.00 | 0.02 | 0.00 | 44 | 1015.7 |
| 20260506060326 | 48 | 8 | 1.0 | 4.0 | 0.00 | 0.02 | 0.00 | 42 | 1015.7 |
| 20260506051327 | 49 | 26 | 1.0 | 2.0 | 0.00 | 0.02 | 0.00 | 42 | 1015.2 |
| 20260506050357 | 49 | 3 | 1.0 | 7.0 | 0.00 | 0.02 | 0.00 | 40 | 1015.1 |
| 20260506044408 | 50 | 354 | 1.0 | 2.0 | 0.00 | 0.02 | 0.02 | 41 | 1014.8 |
| 20260506043323 | 50 | 5 | 0.0 | 2.0 | 0.00 | 0.02 | 0.02 | 41 | 1014.9 |
| 20260506042334 | 50 | 23 | 0.0 | 3.0 | 0.00 | 0.02 | 0.02 | 40 | 1014.9 |
| 20260506041331 | 50 | 12 | 1.0 | 3.0 | 0.00 | 0.02 | 0.02 | 39 | 1014.7 |
| 20260506040325 | 50 | 16 | 2.0 | 4.0 | 0.00 | 0.02 | 0.02 | 39 | 1014.6 |
| 20260506035339 | 51 | 8 | 1.0 | 2.0 | 0.00 | 0.02 | 0.02 | 39 | 1014.6 |
| 20260506034344 | 51 | 10 | 2.0 | 5.0 | 0.00 | 0.02 | 0.02 | 37 | 1014.7 |
| 20260506033334 | 51 | 14 | 3.0 | 6.0 | 0.00 | 0.02 | 0.02 | 37 | 1014.6 |
| 20260506032328 | 51 | 349 | 2.0 | 5.0 | 0.00 | 0.02 | 0.02 | 38 | 1014.4 |
| 20260506031359 | 51 | 339 | 2.0 | 4.0 | 0.00 | 0.02 | 0.02 | 37 | 1014.2 |
| 20260506030327 | 51 | 339 | 3.0 | 5.0 | 0.00 | 0.02 | 0.02 | 37 | 1014.1 |
| 20260506025356 | 52 | 6 | 2.0 | 5.0 | 0.00 | 0.02 | 0.02 | 37 | 1014.0 |
| 20260506024336 | 52 | 15 | 1.0 | 8.0 | 0.00 | 0.02 | 0.02 | 37 | 1013.9 |
| 20260506023346 | 52 | 12 | 2.0 | 6.0 | 0.00 | 0.02 | 0.02 | 37 | 1013.7 |
| 20260506022331 | 52 | 328 | 2.0 | 4.0 | 0.00 | 0.02 | 0.02 | 37 | 1013.7 |
| 20260506021337 | 52 | 359 | 1.0 | 7.0 | 0.00 | 0.02 | 0.02 | 36 | 1013.5 |
| 20260506020349 | 52 | 356 | 3.0 | 7.0 | 0.00 | 0.02 | 0.02 | 36 | 1013.4 |
| 20260506015355 | 52 | 359 | 2.0 | 8.0 | 0.00 | 0.02 | 0.02 | 36 | 1013.2 |
| 20260506014341 | 53 | 354 | 3.0 | 7.0 | 0.00 | 0.02 | 0.02 | 36 | 1013.1 |
| 20260506013351 | 53 | 336 | 3.0 | 6.0 | 0.00 | 0.02 | 0.02 | 37 | 1013.0 |
| 20260506012336 | 53 | 327 | 3.0 | 8.0 | 0.00 | 0.02 | 0.02 | 36 | 1012.9 |
| 20260506011340 | 53 | 346 | 6.0 | 10.0 | 0.00 | 0.02 | 0.02 | 35 | 1012.8 |
| 20260506010330 | 53 | 11 | 3.0 | 9.0 | 0.00 | 0.02 | 0.02 | 35 | 1012.6 |
| 20260506005341 | 54 | 21 | 3.0 | 10.0 | 0.00 | 0.02 | 0.02 | 35 | 1012.6 |
| 20260506004327 | 54 | 5 | 4.0 | 9.0 | 0.00 | 0.02 | 0.02 | 35 | 1012.6 |
| 20260506003338 | 54 | 344 | 4.0 | 11.0 | 0.00 | 0.02 | 0.02 | 35 | 1012.4 |
| 20260506002330 | 54 | 340 | 3.0 | 9.0 | 0.00 | 0.02 | 0.02 | 35 | 1012.4 |
| 20260506001349 | 54 | 19 | 2.0 | 7.0 | 0.00 | 0.02 | 0.02 | 36 | 1012.4 |
| 20260506000336 | 54 | 358 | 5.0 | 12.0 | 0.00 | 0.02 | 0.02 | 35 | 1012.4 |
| 20260505235327 | 55 | 35 | 4.0 | 11.0 | 0.00 | 0.02 | 0.02 | 35 | 1012.3 |
| 20260505234349 | 55 | 347 | 4.0 | 11.0 | 0.00 | 0.02 | 0.02 | 35 | 1012.2 |
| 20260505233354 | 55 | 3 | 4.0 | 10.0 | 0.00 | 0.02 | 0.02 | 35 | 1012.1 |
| 20260505232326 | 56 | 18 | 4.0 | 12.0 | 0.00 | 0.02 | 0.02 | 35 | 1012.0 |
| 20260505231330 | 56 | 340 | 3.0 | 9.0 | 0.00 | 0.02 | 0.02 | 35 | 1011.9 |
| 20260505230340 | 56 | 14 | 2.0 | 9.0 | 0.00 | 0.02 | 0.02 | 34 | 1011.9 |
| 20260505225329 | 56 | 342 | 3.0 | 10.0 | 0.00 | 0.02 | 0.02 | 34 | 1011.9 |
| 20260505224350 | 57 | 7 | 3.0 | 7.0 | 0.00 | 0.02 | 0.02 | 33 | 1011.9 |
| 20260505223338 | 57 | 338 | 2.0 | 12.0 | 0.00 | 0.02 | 0.02 | 34 | 1011.9 |
| 20260505222325 | 57 | 10 | 4.0 | 7.0 | 0.00 | 0.02 | 0.02 | 35 | 1011.8 |
| 20260505221330 | 57 | 9 | 2.0 | 8.0 | 0.00 | 0.02 | 0.02 | 35 | 1011.8 |
| 20260505220343 | 57 | 137 | 2.0 | 9.0 | 0.00 | 0.02 | 0.02 | 36 | 1011.8 |
| 20260505215349 | 57 | 3 | 2.0 | 8.0 | 0.00 | 0.02 | 0.02 | 36 | 1011.7 |
| 20260505214336 | 57 | 20 | 5.0 | 10.0 | 0.00 | 0.02 | 0.02 | 35 | 1011.9 |
| 20260505213327 | 57 | 5 | 2.0 | 8.0 | 0.00 | 0.02 | 0.02 | 37 | 1012.0 |
| 20260505212342 | 57 | 55 | 3.0 | 10.0 | 0.00 | 0.02 | 0.02 | 37 | 1012.1 |
| 20260505211346 | 57 | 3 | 2.0 | 9.0 | 0.00 | 0.02 | 0.02 | 37 | 1012.2 |
| 20260505210351 | 57 | 349 | 3.0 | 8.0 | 0.00 | 0.02 | 0.02 | 37 | 1012.3 |
| 20260505205331 | 57 | 358 | 3.0 | 7.0 | 0.00 | 0.02 | 0.02 | 41 | 1012.3 |
| 20260505204334 | 58 | 337 | 5.0 | 9.0 | 0.00 | 0.02 | 0.02 | 37 | 1012.3 |
| 20260505203404 | 58 | 347 | 4.0 | 8.0 | 0.00 | 0.02 | 0.02 | 35 | 1012.3 |
| 20260505202328 | 59 | 46 | 5.0 | 12.0 | 0.00 | 0.02 | 0.02 | 37 | 1012.5 |
| 20260505201335 | 59 | 166 | 2.0 | 6.0 | 0.00 | 0.02 | 0.02 | 34 | 1012.5 |
| 20260505200407 | 59 | 187 | 2.0 | 8.0 | 0.00 | 0.02 | 0.02 | 37 | 1012.6 |
| 20260505195335 | 58 | 25 | 5.0 | 9.0 | 0.00 | 0.02 | 0.02 | 36 | 1012.7 |
| 20260505194326 | 59 | 318 | 4.0 | 10.0 | 0.00 | 0.02 | 0.02 | 34 | 1012.7 |
| 20260505193338 | 58 | 45 | 3.0 | 6.0 | 0.00 | 0.02 | 0.02 | 37 | 1012.7 |
| 20260505192327 | 58 | 328 | 2.0 | 6.0 | 0.00 | 0.02 | 0.02 | 37 | 1012.8 |